QPF
0.00 0.00 0.00 0.00 0.00 0.00 0.00 0.00 0.00 0.00 0.00 0.00 0.00 0.00 0.00 0.00 0.00 0.00 0.00 0.00 0.00 0.00 0.00 0.00 0.00 0.00 0.00 0.00 0.00 0.00 0.00 0.00 0.00 0.00 0.00 0.00 0.00 0.00 0.00 0.00 0.00 0.00 0.00 0.00 0.00 0.00 0.00 0.00 0.00 0.00 0.00 0.00
0.00 0.00 0.00 0.00 0.00 0.00 0.00 0.00 0.00 0.00 0.00 0.00 0.00 0.00 0.00 0.00 0.00 0.00 0.00 0.00 0.00 0.00 0.00 0.00 0.00 0.00 0.00 0.00 0.00 0.00 0.00 0.00 0.00 0.00 0.00 0.00 0.00 0.00 0.00 0.00 0.00 0.00 0.00 0.00 0.00 0.00 0.00 0.00 0.00 0.00 0.00 0.00
0.00 0.00 0.00 0.00 0.00 0.00 0.00 0.00 0.00 0.00 0.00 0.00 0.00 0.00 0.00 0.00 0.00 0.00 0.00 0.00 0.00 0.00 0.00 0.00 0.00 0.00 0.00 0.00 0.00 0.00 0.00 0.00 0.00 0.00 0.00 0.00 0.00 0.00 0.00 0.00 0.00 0.00 0.00 0.00 0.00 0.00 0.00 0.00 0.00 0.00 0.00 0.00
0.00 0.00 0.00 0.00 0.00 0.00 0.00 0.00 0.00 0.00 0.00 0.00 0.00 0.00 0.00 0.00 0.00 0.00 0.00 0.00 0.00 0.00 0.00 0.00 0.00 0.00 0.00 0.00 0.00 0.00 0.00 0.00 0.00 0.00 0.00 0.00 0.00 0.00 0.00 0.00 0.00 0.00 0.00 0.00 0.00 0.00 0.00 0.00 0.00 0.00 0.00 0.00
0.00 0.00 0.00 0.00 0.00 0.00 0.00 0.00 0.00 0.00 0.00 0.00 0.00 0.00 0.00 0.00 0.00 0.00 0.00 0.00 0.00 0.00 0.00 0.00 0.00 0.00 0.00 0.00 0.00 0.00 0.00 0.00 0.00 0.00 0.00 0.00 0.00 0.00 0.00 0.00 0.00 0.00 0.00 0.00 0.00 0.00 0.00 0.00 0.00 0.00 0.00 0.00
0.00 0.00 0.00 0.00 0.00 0.00 0.00 0.00 0.00 0.00 0.00 0.00 0.00 0.00 0.00 0.00 0.00 0.00 0.00 0.00 0.00 0.00 0.00 0.00 0.00 0.00 0.00 0.00 0.00 0.00 0.00 0.00 0.00 0.00 0.00 0.00 0.00 0.00 0.00 0.00 0.00 0.00 0.00 0.00 0.00 0.00 0.00 0.00 0.00 0.00 0.00 0.00
0.00 0.00 0.00 0.00 0.00 0.00 0.00 0.00 0.00 0.00 0.00 0.00 0.00 0.00 0.00 0.00 0.00 0.00 0.00 0.00 0.00 0.00 0.00 0.00 0.00 0.00 0.00 0.00 0.00 0.00 0.00 0.00 0.00 0.00 0.00 0.00 0.00 0.00 0.00 0.00 0.00 0.00 0.00 0.00 0.00 0.00 0.00 0.00 0.00 0.00 0.00 0.00
0.00 0.00 0.00 0.00 0.00 0.00 0.00 0.00 0.00 0.00 0.00 0.00 0.00 0.00 0.00 0.00 0.00 0.00 0.00 0.00 0.00 0.00 0.00 0.00 0.00 0.00 0.00 0.00 0.00 0.00 0.00 0.00 0.00 0.00 0.00 0.00 0.00 0.00 0.00 0.00 0.00 0.00 0.00 0.00 0.00 0.00 0.00 0.00 0.00 0.00 0.00 0.00
0.00 0.00 0.00 0.00 0.00 0.00 0.00 0.00 0.00 0.00 0.00 0.00 0.00 0.00 0.00 0.00 0.00 0.00 0.00 0.00 0.00 0.00 0.00 0.00 0.00 0.00 0.00 0.00 0.00 0.00 0.00 0.00 0.00 0.00 0.00 0.00 0.00 0.00 0.00 0.00 0.00 0.00 0.00 0.00 0.00 0.00 0.00 0.00 0.00 0.00 0.00 0.00
0.00 0.00 0.00 0.00 0.00 0.00 0.00 0.00 0.00 0.00 0.00 0.00 0.00 0.00 0.00 0.00 0.00 0.00 0.00 0.00 0.00 0.00 0.00 0.00 0.00 0.00 0.00 0.00 0.00 0.00 0.00 0.00 0.00 0.00 0.00 0.00 0.00 0.00 0.00 0.00 0.00 0.00 0.00 0.00 0.00 0.00 0.00 0.00 0.00 0.00 0.00 0.00
0.00 0.00 0.00 0.00 0.00 0.00 0.00 0.00 0.00 0.00 0.00 0.00 0.00 0.00 0.00 0.00 0.00 0.00 0.00 0.00 0.00 0.00 0.00 0.00 0.00 0.00 0.00 0.00 0.00 0.00 0.00 0.00 0.00 0.00 0.00 0.00 0.00 0.00 0.00 0.00 0.00 0.00 0.00 0.00 0.00 0.00 0.00 0.00 0.00 0.00 0.00 0.00
0.00 0.00 0.00 0.00 0.00 0.00 0.00 0.00 0.00 0.00 0.00 0.00 0.00 0.00 0.00 0.00 0.00 0.00 0.00 0.00 0.00 0.00 0.00 0.00 0.00 0.00 0.00 0.00 0.00 0.00 0.00 0.00 0.00 0.00 0.00 0.00 0.00 0.00 0.00 0.00 0.00 0.00 0.00 0.00 0.00 0.00 0.00 0.00 0.00 0.00 0.00 0.00
0.00 0.00 0.00 0.00 0.00 0.00 0.00 0.00 0.00 0.00 0.00 0.00 0.00 0.00 0.00 0.00 0.00 0.00 0.00 0.00 0.00 0.00 0.00 0.00 0.00 0.00 0.00 0.00 0.00 0.00 0.00 0.00 0.00 0.00 0.00 0.00 0.00 0.00 0.00 0.00 0.00 0.00 0.00 0.00 0.00 0.00 0.00 0.00 0.00 0.00 0.00 0.00
0.00 0.00 0.00 0.00 0.00 0.00 0.00 0.00 0.00 0.00 0.00 0.00 0.00 0.00 0.00 0.00 0.00 0.00 0.00 0.00 0.00 0.00 0.00 0.00 0.00 0.00 0.00 0.00 0.00 0.00 0.00 0.00 0.00 0.00 0.00 0.00 0.00 0.00 0.00 0.00 0.00 0.00 0.00 0.00 0.00 0.00 0.00 0.00 0.00 0.00 0.00 0.00
0.00 0.00 0.00 0.00 0.00 0.00 0.00 0.00 0.00 0.00 0.00 0.00 0.00 0.00 0.00 0.00 0.00 0.00 0.00 0.00 0.00 0.00 0.00 0.00 0.00 0.00 0.00 0.00 0.00 0.00 0.00 0.00 0.00 0.00 0.00 0.00 0.00 0.00 0.00 0.00 0.00 0.00 0.00 0.00 0.00 0.00 0.00 0.00 0.00 0.00 0.00 0.00
0.00 0.00 0.00 0.00 0.00 0.00 0.00 0.00 0.00 0.00 0.00 0.00 0.00 0.00 0.00 0.00 0.00 0.00 0.00 0.00 0.00 0.00 0.00 0.00 0.00 0.00 0.00 0.00 0.00 0.00 0.00 0.00 0.00 0.00 0.00 0.00 0.00 0.00 0.00 0.00 0.00 0.00 0.00 0.00 0.00 0.00 0.00 0.00 0.00 0.00 0.00 0.00
0.00 0.00 0.00 0.00 0.00 0.00 0.00 0.00 0.00 0.00 0.00 0.00 0.00 0.00 0.00 0.00 0.00 0.00 0.00 0.00 0.00 0.00 0.00 0.00 0.00 0.00 0.00 0.00 0.00 0.00 0.00 0.00 0.00 0.00 0.00 0.00 0.00 0.00 0.00 0.00 0.00 0.00 0.00 0.00 0.00 0.00 0.00 0.00 0.00 0.00 0.00 0.00
0.00 0.00 0.00 0.00 0.00 0.00 0.00 0.00 0.00 0.00 0.00 0.00 0.00 0.00 0.00 0.00 0.00 0.00 0.00 0.00 0.00 0.00 0.00 0.00 0.00 0.00 0.00 0.00 0.00 0.00 0.00 0.00 0.00 0.00 0.00 0.00 0.00 0.00 0.00 0.00 0.00 0.00 0.00 0.00 0.00 0.00 0.00 0.00 0.00 0.00 0.00 0.00
0.00 0.00 0.00 0.00 0.00 0.00 0.00 0.00 0.00 0.00 0.00 0.00 0.00 0.00 0.00 0.00 0.00 0.00 0.00 0.00 0.00 0.00 0.00 0.00 0.00 0.00 0.00 0.00 0.00 0.00 0.00 0.00 0.00 0.00 0.00 0.00 0.00 0.00 0.00 0.00 0.00 0.00 0.00 0.00 0.00 0.00 0.00 0.00 0.00 0.00 0.00 0.00
0.00 0.00 0.00 0.00 0.00 0.00 0.00 0.00 0.00 0.00 0.00 0.00 0.00 0.00 0.00 0.00 0.00 0.00 0.00 0.00 0.00 0.00 0.00 0.00 0.00 0.00 0.00 0.00 0.00 0.00 0.00 0.00 0.00 0.00 0.00 0.00 0.00 0.00 0.00 0.00 0.00 0.00 0.00 0.00 0.00 0.00 0.00 0.00 0.00 0.00 0.00 0.00
0.00 0.00 0.00 0.00 0.00 0.00 0.00 0.00 0.00 0.00 0.00 0.00 0.00 0.00 0.00 0.00 0.00 0.00 0.00 0.00 0.00 0.00 0.00 0.00 0.00 0.00 0.00 0.00 0.00 0.00 0.00 0.00 0.00 0.00 0.00 0.00 0.00 0.00 0.00 0.00 0.00 0.00 0.00 0.00 0.00 0.00 0.00 0.00 0.00 0.00 0.00 0.00
0.00 0.00 0.00 0.00 0.00 0.00 0.00 0.00 0.00 0.00 0.00 0.00 0.00 0.00 0.00 0.00 0.00 0.00 0.00 0.00 0.00 0.00 0.00 0.00 0.00 0.00 0.00 0.00 0.00 0.00 0.00 0.00 0.00 0.00 0.00 0.00 0.00 0.00 0.00 0.00 0.00 0.00 0.00 0.00 0.00 0.00 0.00 0.00 0.00 0.00 0.00 0.00
0.00 0.00 0.00 0.00 0.00 0.00 0.00 0.00 0.00 0.00 0.00 0.00 0.00 0.00 0.00 0.00 0.00 0.00 0.00 0.00 0.00 0.00 0.00 0.00 0.00 0.00 0.00 0.00 0.00 0.00 0.00 0.00 0.00 0.00 0.00 0.00 0.00 0.00 0.00 0.00 0.00 0.00 0.00 0.00 0.00 0.00 0.00 0.00 0.00 0.00 0.00 0.00
0.00 0.00 0.00 0.00 0.00 0.00 0.00 0.00 0.00 0.00 0.00 0.00 0.00 0.00 0.00 0.00 0.00 0.00 0.00 0.00 0.00 0.00 0.00 0.00 0.00 0.00 0.00 0.00 0.00 0.00 0.00 0.00 0.00 0.00 0.00 0.00 0.00 0.00 0.00 0.00 0.00 0.00 0.00 0.00 0.00 0.00 0.00 0.00 0.00 0.00 0.00 0.00
0.00 0.00 0.00 0.00 0.00 0.00 0.00 0.00 0.00 0.00 0.00 0.00 0.00 0.00 0.00 0.00 0.00 0.00 0.00 0.00 0.00 0.00 0.00 0.00 0.00 0.00 0.00 0.00 0.00 0.00 0.00 0.00 0.00 0.00 0.00 0.00 0.00 0.00 0.00 0.00 0.00 0.00 0.00 0.00 0.00 0.00 0.00 0.00 0.00 0.00 0.00 0.00
0.00 0.00 0.00 0.00 0.00 0.00 0.00 0.00 0.00 0.00 0.00 0.00 0.00 0.00 0.00 0.00 0.00 0.00 0.00 0.00 0.00 0.00 0.00 0.00 0.00 0.00 0.00 0.00 0.00 0.00 0.00 0.00 0.00 0.00 0.00 0.00 0.00 0.00 0.00 0.00 0.00 0.00 0.00 0.00 0.00 0.00 0.00 0.00 0.00 0.00 0.00 0.00
0.00 0.00 0.00 0.00 0.00 0.00 0.00 0.00 0.00 0.00 0.00 0.00 0.00 0.00 0.00 0.00 0.00 0.00 0.00 0.00 0.00 0.00 0.00 0.00 0.00 0.00 0.00 0.00 0.00 0.00 0.00 0.00 0.00 0.00 0.00 0.00 0.00 0.00 0.00 0.00 0.00 0.00 0.00 0.00 0.00 0.00 0.00 0.00 0.00 0.00 0.00 0.00
0.00 0.00 0.00 0.00 0.00 0.00 0.00 0.00 0.00 0.00 0.00 0.00 0.00 0.00 0.00 0.00 0.00 0.00 0.00 0.00 0.00 0.00 0.00 0.00 0.00 0.00 0.00 0.00 0.00 0.00 0.00 0.00 0.00 0.00 0.00 0.00 0.00 0.00 0.00 0.00 0.00 0.00 0.00 0.00 0.00 0.00 0.00 0.00 0.00 0.00 0.00 0.00
0.00 0.00 0.00 0.00 0.00 0.00 0.00 0.00 0.00 0.00 0.00 0.00 0.00 0.00 0.00 0.00 0.00 0.00 0.00 0.00 0.00 0.00 0.00 0.00 0.00 0.00 0.00 0.00 0.00 0.00 0.00 0.00 0.00 0.00 0.00 0.00 0.00 0.00 0.00 0.00 0.00 0.00 0.00 0.00 0.00 0.00 0.00 0.00 0.00 0.00 0.00 0.00
0.00 0.00 0.00 0.00 0.00 0.00 0.00 0.00 0.00 0.00 0.00 0.00 0.00 0.00 0.00 0.00 0.00 0.00 0.00 0.00 0.00 0.00 0.00 0.00 0.00 0.00 0.00 0.00 0.00 0.00 0.00 0.00 0.00 0.00 0.00 0.00 0.00 0.00 0.00 0.00 0.00 0.00 0.00 0.00 0.00 0.00 0.00 0.00 0.00 0.00 0.00 0.00
0.00 0.00 0.00 0.00 0.00 0.00 0.00 0.00 0.00 0.00 0.00 0.00 0.00 0.00 0.00 0.00 0.00 0.00 0.00 0.00 0.00 0.00 0.00 0.00 0.00 0.00 0.00 0.00 0.00 0.00 0.00 0.00 0.00 0.00 0.00 0.00 0.00 0.00 0.00 0.00 0.00 0.00 0.00 0.00 0.00 0.00 0.00 0.00 0.00 0.00 0.00 0.00
MSLP
1026.30 1026.34 1026.38 1026.30 1026.30 1026.26 1026.22 1026.14 1026.02 1025.98 1025.90 1025.86 1025.86 1025.82 1025.82 1025.82 1025.78 1025.70 1025.58 1025.42 1025.26 1025.14 1025.06 1024.98 1024.90 1024.86 1024.82 1024.70 1024.58 1024.50 1024.42 1024.34 1024.22 1024.22 1024.18 1024.14 1024.10 1024.06 1024.02 1024.02 1023.94 1023.94 1023.86 1023.78 1023.70 1023.62 1023.58 1023.62 1023.70 1023.70 1023.74 1023.98
1026.10 1026.18 1026.22 1026.18 1026.18 1026.18 1026.14 1026.06 1025.98 1025.94 1025.86 1025.82 1025.78 1025.74 1025.74 1025.74 1025.74 1025.66 1025.54 1025.38 1025.30 1025.22 1025.14 1025.10 1025.02 1024.98 1024.86 1024.70 1024.58 1024.50 1024.46 1024.34 1024.26 1024.18 1024.18 1024.18 1024.14 1024.14 1024.14 1024.14 1024.10 1024.10 1023.98 1023.82 1023.74 1023.70 1023.66 1023.70 1023.86 1023.98 1024.02 1024.18
1025.94 1025.94 1026.02 1026.02 1026.02 1026.02 1025.98 1025.94 1025.90 1025.82 1025.74 1025.70 1025.70 1025.66 1025.62 1025.66 1025.62 1025.62 1025.54 1025.42 1025.38 1025.38 1025.22 1025.18 1025.18 1025.14 1024.90 1024.70 1024.62 1024.50 1024.42 1024.34 1024.26 1024.22 1024.18 1024.14 1024.14 1024.18 1024.18 1024.18 1024.22 1024.26 1024.14 1023.94 1023.78 1023.70 1023.70 1023.82 1023.90 1024.14 1024.30 1024.30
1025.82 1025.78 1025.78 1025.78 1025.78 1025.78 1025.82 1025.78 1025.74 1025.70 1025.66 1025.58 1025.54 1025.54 1025.54 1025.54 1025.58 1025.62 1025.62 1025.42 1025.50 1025.42 1025.30 1025.34 1025.30 1025.14 1024.90 1024.66 1024.50 1024.46 1024.38 1024.26 1024.26 1024.22 1024.10 1024.06 1024.10 1024.10 1024.14 1024.14 1024.22 1024.38 1024.30 1024.10 1023.94 1023.82 1023.70 1023.74 1023.94 1024.30 1024.38 1024.30
1025.58 1025.58 1025.54 1025.54 1025.54 1025.58 1025.62 1025.62 1025.58 1025.54 1025.50 1025.46 1025.46 1025.46 1025.46 1025.46 1025.50 1025.58 1025.58 1025.54 1025.50 1025.38 1025.38 1025.30 1025.22 1025.06 1024.82 1024.58 1024.38 1024.30 1024.22 1024.18 1024.22 1024.14 1024.02 1023.98 1024.02 1023.94 1023.98 1024.10 1024.22 1024.42 1024.38 1024.26 1024.10 1023.98 1023.90 1023.86 1024.06 1024.18 1024.22 1024.26
1025.26 1025.30 1025.26 1025.42 1025.46 1025.46 1025.46 1025.42 1025.38 1025.38 1025.38 1025.38 1025.38 1025.30 1025.34 1025.42 1025.42 1025.42 1025.42 1025.42 1025.38 1025.38 1025.30 1025.26 1025.10 1024.98 1024.82 1024.58 1024.38 1024.26 1024.22 1024.18 1024.18 1024.10 1023.98 1023.94 1023.90 1023.94 1023.90 1024.06 1024.38 1024.46 1024.46 1024.30 1024.18 1024.06 1023.98 1024.18 1024.26 1024.14 1024.06 1024.02
1024.90 1025.02 1025.10 1025.22 1025.30 1025.38 1025.22 1025.26 1025.18 1025.26 1025.26 1025.26 1025.26 1025.22 1025.26 1025.22 1025.30 1025.30 1025.30 1025.34 1025.26 1025.18 1025.10 1025.10 1025.06 1024.98 1024.82 1024.66 1024.50 1024.38 1024.26 1024.22 1024.18 1024.14 1024.06 1023.90 1023.98 1023.98 1024.02 1024.18 1024.34 1024.38 1024.38 1024.34 1024.14 1024.10 1024.10 1024.18 1024.18 1024.18 1024.06 1023.90
1024.66 1024.78 1024.90 1025.02 1025.10 1025.14 1025.10 1025.06 1025.06 1025.10 1025.10 1025.06 1025.02 1025.02 1025.06 1025.06 1025.10 1025.10 1025.18 1025.14 1025.10 1025.06 1025.06 1025.10 1025.06 1024.98 1024.90 1024.82 1024.70 1024.54 1024.46 1024.42 1024.38 1024.26 1024.18 1024.18 1024.10 1024.18 1024.30 1024.30 1024.30 1024.26 1024.22 1024.18 1024.14 1024.10 1024.06 1024.02 1024.06 1024.06 1024.02 1023.94
1024.42 1024.58 1024.70 1024.78 1024.86 1024.90 1024.86 1024.90 1024.90 1024.90 1024.90 1024.86 1024.86 1024.90 1024.90 1024.94 1024.94 1024.98 1025.06 1025.10 1025.10 1025.06 1025.06 1025.02 1024.98 1024.98 1024.98 1024.94 1024.90 1024.70 1024.62 1024.58 1024.54 1024.46 1024.46 1024.38 1024.34 1024.38 1024.34 1024.30 1024.26 1024.18 1024.10 1024.06 1024.02 1023.98 1023.98 1023.94 1023.98 1023.98 1023.94 1023.90
1024.06 1024.30 1024.42 1024.54 1024.58 1024.62 1024.66 1024.70 1024.70 1024.74 1024.78 1024.74 1024.74 1024.78 1024.78 1024.82 1024.86 1024.90 1024.94 1024.94 1024.94 1024.94 1024.94 1024.90 1024.90 1024.86 1024.82 1024.82 1024.78 1024.74 1024.66 1024.58 1024.54 1024.50 1024.46 1024.42 1024.42 1024.38 1024.34 1024.30 1024.26 1024.22 1024.10 1024.02 1023.98 1023.98 1023.94 1023.94 1023.90 1023.90 1023.86 1023.78
1023.90 1023.98 1024.14 1024.26 1024.38 1024.42 1024.54 1024.58 1024.58 1024.62 1024.62 1024.58 1024.62 1024.66 1024.70 1024.74 1024.78 1024.86 1024.90 1024.86 1024.86 1024.86 1024.86 1024.82 1024.78 1024.70 1024.70 1024.66 1024.66 1024.66 1024.66 1024.58 1024.54 1024.46 1024.42 1024.42 1024.42 1024.42 1024.38 1024.34 1024.30 1024.22 1024.18 1024.10 1023.98 1023.94 1023.98 1023.94 1023.86 1023.78 1023.74 1023.66
1023.78 1023.86 1024.06 1024.14 1024.14 1024.22 1024.26 1024.34 1024.34 1024.34 1024.34 1024.38 1024.46 1024.50 1024.54 1024.54 1024.70 1024.78 1024.82 1024.86 1024.90 1024.82 1024.86 1024.74 1024.66 1024.62 1024.58 1024.50 1024.50 1024.50 1024.50 1024.46 1024.42 1024.34 1024.34 1024.38 1024.42 1024.42 1024.38 1024.38 1024.30 1024.26 1024.18 1024.10 1024.02 1023.94 1023.86 1023.82 1023.74 1023.66 1023.58 1023.50
1023.54 1023.70 1023.86 1023.94 1023.94 1023.94 1023.98 1024.02 1024.06 1024.10 1024.18 1024.22 1024.26 1024.30 1024.38 1024.42 1024.54 1024.66 1024.70 1024.78 1024.82 1024.86 1024.82 1024.78 1024.70 1024.54 1024.46 1024.42 1024.34 1024.30 1024.26 1024.26 1024.22 1024.22 1024.22 1024.22 1024.26 1024.34 1024.34 1024.38 1024.34 1024.26 1024.14 1024.06 1023.98 1023.94 1023.86 1023.74 1023.62 1023.50 1023.38 1023.34
1023.42 1023.46 1023.62 1023.70 1023.74 1023.74 1023.82 1023.82 1023.86 1023.98 1024.06 1024.06 1024.14 1024.18 1024.22 1024.26 1024.34 1024.46 1024.54 1024.62 1024.70 1024.78 1024.78 1024.78 1024.70 1024.58 1024.42 1024.34 1024.22 1024.14 1024.10 1024.02 1024.02 1024.02 1024.06 1024.06 1024.10 1024.14 1024.22 1024.22 1024.22 1024.14 1024.02 1023.94 1023.90 1023.86 1023.78 1023.62 1023.46 1023.34 1023.22 1023.10
1023.10 1023.30 1023.38 1023.42 1023.50 1023.62 1023.62 1023.62 1023.74 1023.82 1023.86 1023.94 1024.02 1024.02 1024.10 1024.18 1024.22 1024.30 1024.42 1024.50 1024.54 1024.62 1024.62 1024.62 1024.62 1024.54 1024.46 1024.34 1024.22 1024.10 1023.94 1023.90 1023.82 1023.86 1023.86 1023.90 1023.94 1024.02 1024.02 1024.02 1024.02 1024.02 1023.98 1023.86 1023.78 1023.66 1023.54 1023.38 1023.30 1023.18 1023.06 1022.94
1022.94 1023.10 1023.14 1023.18 1023.34 1023.38 1023.38 1023.46 1023.58 1023.66 1023.74 1023.78 1023.86 1023.90 1023.98 1024.06 1024.14 1024.18 1024.30 1024.38 1024.42 1024.46 1024.50 1024.46 1024.46 1024.42 1024.38 1024.26 1024.18 1024.06 1023.90 1023.74 1023.66 1023.62 1023.62 1023.66 1023.74 1023.78 1023.82 1023.86 1023.86 1023.90 1023.86 1023.66 1023.58 1023.46 1023.38 1023.22 1023.10 1022.98 1022.90 1022.78
1022.62 1022.82 1022.94 1022.98 1023.02 1023.06 1023.14 1023.26 1023.34 1023.46 1023.50 1023.58 1023.66 1023.78 1023.82 1023.90 1024.02 1024.06 1024.14 1024.22 1024.30 1024.30 1024.38 1024.42 1024.42 1024.34 1024.22 1024.10 1024.02 1023.98 1023.86 1023.74 1023.62 1023.54 1023.50 1023.46 1023.54 1023.58 1023.70 1023.74 1023.70 1023.62 1023.54 1023.46 1023.38 1023.26 1023.10 1023.02 1022.90 1022.78 1022.70 1022.58
1022.54 1022.58 1022.62 1022.70 1022.78 1022.82 1022.94 1023.06 1023.14 1023.18 1023.30 1023.42 1023.50 1023.58 1023.66 1023.78 1023.86 1023.86 1023.98 1024.06 1024.14 1024.22 1024.26 1024.30 1024.30 1024.26 1024.14 1024.06 1023.94 1023.86 1023.82 1023.70 1023.58 1023.54 1023.50 1023.46 1023.54 1023.58 1023.58 1023.54 1023.50 1023.50 1023.42 1023.26 1023.14 1023.02 1022.90 1022.82 1022.66 1022.58 1022.42 1022.30
1022.26 1022.34 1022.42 1022.46 1022.54 1022.62 1022.70 1022.82 1022.94 1023.02 1023.14 1023.26 1023.34 1023.46 1023.54 1023.62 1023.70 1023.70 1023.78 1023.90 1023.98 1024.06 1024.14 1024.14 1024.14 1024.14 1024.06 1024.02 1023.94 1023.82 1023.70 1023.66 1023.54 1023.54 1023.50 1023.54 1023.54 1023.54 1023.54 1023.50 1023.42 1023.34 1023.22 1023.10 1022.98 1022.86 1022.74 1022.58 1022.42 1022.34 1022.18 1022.06
1022.14 1022.14 1022.22 1022.30 1022.34 1022.42 1022.58 1022.66 1022.78 1022.90 1022.98 1023.06 1023.22 1023.30 1023.38 1023.46 1023.50 1023.54 1023.66 1023.74 1023.86 1023.90 1023.94 1023.98 1023.98 1023.90 1023.94 1023.90 1023.86 1023.78 1023.66 1023.58 1023.46 1023.42 1023.42 1023.42 1023.50 1023.54 1023.46 1023.42 1023.26 1023.18 1023.06 1022.98 1022.78 1022.62 1022.54 1022.42 1022.30 1022.14 1021.98 1021.78
1022.18 1022.22 1022.18 1022.18 1022.22 1022.30 1022.46 1022.58 1022.62 1022.74 1022.86 1022.98 1023.06 1023.10 1023.18 1023.22 1023.30 1023.34 1023.46 1023.54 1023.62 1023.70 1023.74 1023.78 1023.78 1023.74 1023.74 1023.74 1023.74 1023.70 1023.66 1023.58 1023.46 1023.38 1023.34 1023.30 1023.30 1023.42 1023.42 1023.34 1023.14 1023.02 1022.90 1022.78 1022.66 1022.50 1022.34 1022.22 1022.06 1021.90 1021.70 1021.46
1022.18 1022.14 1022.14 1022.18 1022.22 1022.30 1022.38 1022.46 1022.58 1022.62 1022.74 1022.78 1022.82 1022.90 1022.94 1022.98 1023.02 1023.06 1023.14 1023.22 1023.30 1023.38 1023.42 1023.42 1023.50 1023.46 1023.50 1023.54 1023.54 1023.54 1023.54 1023.46 1023.46 1023.42 1023.30 1023.22 1023.18 1023.18 1023.26 1023.22 1023.14 1022.86 1022.74 1022.62 1022.46 1022.26 1022.10 1021.94 1021.82 1021.62 1021.42 1021.18
1022.18 1022.26 1022.30 1022.30 1022.30 1022.34 1022.38 1022.42 1022.50 1022.54 1022.58 1022.58 1022.66 1022.70 1022.66 1022.74 1022.78 1022.74 1022.86 1022.94 1023.02 1023.10 1023.10 1023.14 1023.18 1023.22 1023.18 1023.26 1023.26 1023.30 1023.30 1023.30 1023.30 1023.30 1023.30 1023.18 1023.06 1023.06 1023.02 1022.98 1022.90 1022.82 1022.70 1022.46 1022.22 1022.02 1021.82 1021.70 1021.46 1021.22 1021.02 1020.74
1022.26 1022.26 1022.30 1022.30 1022.30 1022.26 1022.18 1022.26 1022.34 1022.42 1022.42 1022.50 1022.54 1022.46 1022.46 1022.46 1022.46 1022.50 1022.54 1022.58 1022.66 1022.74 1022.78 1022.86 1022.86 1022.90 1022.94 1022.98 1023.06 1023.10 1023.10 1023.06 1023.10 1023.14 1023.18 1023.10 1023.06 1022.98 1022.86 1022.74 1022.70 1022.66 1022.62 1022.42 1022.22 1021.82 1021.46 1021.30 1021.06 1020.82 1020.54 1020.34
1022.58 1022.50 1022.46 1022.46 1022.38 1022.26 1022.18 1022.22 1022.22 1022.30 1022.30 1022.38 1022.34 1022.26 1022.22 1022.22 1022.22 1022.26 1022.30 1022.30 1022.46 1022.50 1022.50 1022.54 1022.58 1022.70 1022.70 1022.74 1022.82 1022.82 1022.74 1022.74 1022.82 1022.90 1022.98 1022.94 1022.90 1022.78 1022.74 1022.62 1022.58 1022.62 1022.62 1022.54 1022.18 1021.70 1021.38 1020.90 1020.54 1020.30 1019.94 1019.78
1022.70 1022.70 1022.74 1022.74 1022.50 1022.42 1022.34 1022.22 1022.26 1022.22 1022.26 1022.22 1022.18 1022.14 1022.10 1022.10 1022.02 1022.06 1022.06 1022.06 1022.18 1022.22 1022.34 1022.38 1022.46 1022.50 1022.46 1022.58 1022.58 1022.54 1022.50 1022.58 1022.58 1022.62 1022.70 1022.78 1022.82 1022.66 1022.74 1022.50 1022.34 1022.46 1022.62 1022.74 1022.54 1022.14 1021.26 1020.50 1020.02 1019.50 1019.38 1019.42
1022.66 1022.66 1022.54 1022.58 1022.54 1022.50 1022.38 1022.34 1022.30 1022.30 1022.18 1022.14 1022.14 1022.06 1022.02 1021.94 1021.90 1021.94 1021.94 1021.90 1021.90 1022.02 1022.06 1022.10 1022.18 1022.22 1022.30 1022.42 1022.46 1022.46 1022.42 1022.42 1022.38 1022.38 1022.42 1022.54 1022.62 1022.54 1022.50 1022.42 1022.18 1022.38 1022.46 1022.70 1022.10 1022.06 1021.90 1021.38 1019.42 1018.94 1018.82 1018.78
1022.46 1022.38 1022.34 1022.30 1022.30 1022.34 1022.46 1022.26 1022.14 1022.18 1022.10 1022.06 1022.06 1021.94 1021.86 1021.86 1021.74 1021.70 1021.66 1021.66 1021.70 1021.70 1021.74 1021.82 1021.86 1021.90 1022.10 1022.14 1022.22 1022.26 1022.22 1022.22 1022.18 1022.18 1022.18 1022.22 1022.26 1022.38 1022.50 1022.22 1022.02 1021.94 1022.14 1022.18 1022.30 1022.62 1021.50 1021.30 1020.54 1020.34 1018.94 1019.26
1022.30 1022.22 1022.18 1022.14 1022.18 1022.26 1022.14 1022.06 1022.06 1022.10 1021.94 1021.82 1021.70 1021.70 1021.66 1021.46 1021.46 1021.42 1021.38 1021.38 1021.42 1021.42 1021.38 1021.46 1021.58 1021.66 1021.74 1021.86 1021.94 1022.02 1022.02 1021.90 1021.82 1021.82 1021.82 1021.82 1021.90 1021.98 1021.94 1022.02 1021.82 1021.78 1021.74 1021.82 1021.58 1021.58 1021.14 1021.30 1020.74 1020.26 1019.62 1019.38
1022.22 1022.14 1022.10 1022.10 1022.14 1022.10 1022.06 1022.14 1022.02 1021.78 1021.46 1021.30 1021.30 1021.18 1021.06 1021.14 1021.18 1021.18 1021.14 1021.14 1021.10 1021.10 1021.06 1021.14 1021.18 1021.30 1021.42 1021.50 1021.54 1021.62 1021.54 1021.50 1021.58 1021.54 1021.46 1021.42 1021.46 1021.50 1021.50 1021.54 1021.78 1021.62 1021.26 1021.22 1021.22 1020.90 1020.50 1019.98 1019.74 1019.58 1020.06 1019.98
1022.06 1022.02 1021.94 1021.90 1021.90 1021.90 1021.82 1021.78 1021.62 1021.38 1021.14 1021.10 1020.90 1020.86 1020.78 1020.66 1020.74 1020.82 1020.86 1020.78 1020.78 1020.78 1020.70 1020.74 1020.86 1020.94 1020.98 1021.06 1021.10 1021.10 1021.18 1021.22 1021.10 1021.02 1020.98 1021.06 1021.14 1020.98 1021.10 1021.34 1021.42 1021.18 1021.02 1021.02 1020.82 1020.62 1020.34 1020.14 1019.90 1020.10 1020.38 1020.62
Thickness
5555 5553 5550 5549 5547 5547 5545 5545 5543 5542 5542 5541 5541 5540 5540 5539 5538 5538 5539 5539 5540 5540 5540 5541 5541 5542 5542 5543 5545 5546 5547 5548 5549 5550 5551 5552 5553 5554 5554 5555 5556 5557 5559 5561 5563 5565 5566 5567 5568 5570 5570 5570
5550 5548 5546 5544 5543 5541 5540 5539 5538 5537 5537 5536 5536 5535 5534 5534 5533 5534 5533 5534 5534 5535 5535 5535 5535 5536 5537 5539 5540 5541 5542 5544 5545 5545 5546 5547 5548 5548 5549 5550 5550 5551 5552 5554 5556 5558 5560 5560 5560 5561 5563 5564
5544 5543 5541 5540 5538 5537 5535 5534 5533 5532 5532 5531 5531 5530 5530 5529 5528 5528 5528 5528 5529 5529 5529 5530 5530 5531 5532 5534 5535 5536 5537 5538 5540 5540 5541 5542 5543 5543 5543 5544 5544 5545 5546 5548 5550 5551 5553 5554 5554 5554 5555 5557
5541 5538 5537 5535 5533 5532 5531 5530 5528 5528 5527 5526 5526 5525 5525 5524 5524 5523 5523 5523 5522 5523 5523 5524 5524 5525 5527 5528 5530 5531 5532 5533 5534 5535 5536 5537 5537 5538 5538 5539 5539 5539 5540 5542 5543 5544 5546 5547 5548 5547 5548 5549
5538 5535 5533 5532 5530 5528 5527 5526 5524 5524 5523 5522 5521 5521 5520 5519 5519 5519 5518 5518 5517 5518 5518 5518 5519 5520 5522 5523 5525 5526 5527 5528 5528 5530 5531 5532 5533 5533 5533 5533 5533 5533 5534 5535 5537 5538 5539 5540 5541 5541 5542 5543
5535 5532 5530 5528 5526 5524 5523 5522 5520 5519 5518 5517 5517 5516 5515 5515 5514 5514 5513 5513 5513 5513 5513 5513 5514 5515 5516 5518 5519 5521 5522 5522 5523 5524 5525 5526 5527 5528 5528 5528 5528 5528 5528 5529 5530 5531 5532 5533 5533 5535 5536 5537
5532 5529 5527 5524 5522 5520 5519 5518 5516 5515 5514 5514 5513 5512 5511 5510 5510 5509 5509 5508 5508 5508 5508 5508 5508 5509 5510 5512 5514 5514 5516 5516 5517 5517 5519 5520 5521 5522 5522 5522 5522 5522 5523 5523 5524 5525 5526 5527 5527 5528 5530 5532
5528 5526 5523 5521 5519 5516 5516 5514 5513 5512 5511 5510 5510 5509 5508 5507 5506 5505 5505 5505 5504 5504 5504 5504 5504 5504 5505 5506 5507 5509 5509 5510 5511 5511 5512 5513 5514 5515 5516 5516 5517 5517 5517 5518 5519 5519 5520 5521 5521 5523 5523 5525
5524 5522 5519 5518 5516 5514 5513 5511 5510 5509 5508 5507 5506 5506 5505 5504 5503 5502 5501 5501 5500 5500 5500 5500 5500 5499 5500 5500 5501 5502 5503 5504 5504 5505 5506 5507 5507 5508 5509 5510 5511 5511 5512 5512 5513 5513 5514 5514 5515 5515 5517 5518
5521 5519 5516 5514 5512 5510 5509 5508 5506 5505 5505 5504 5503 5502 5501 5500 5499 5498 5497 5497 5496 5496 5496 5495 5495 5495 5496 5496 5496 5497 5497 5498 5499 5499 5500 5500 5501 5502 5502 5503 5504 5504 5505 5506 5507 5507 5507 5507 5508 5508 5510 5511
5517 5515 5513 5511 5509 5507 5506 5504 5503 5502 5501 5501 5500 5499 5498 5497 5496 5494 5493 5493 5493 5492 5492 5492 5492 5491 5491 5492 5492 5492 5492 5493 5493 5494 5494 5494 5494 5495 5495 5496 5497 5498 5498 5499 5500 5500 5500 5501 5501 5502 5502 5504
5514 5511 5509 5507 5506 5504 5503 5502 5500 5499 5498 5497 5497 5495 5495 5493 5492 5491 5489 5489 5488 5488 5488 5487 5488 5487 5488 5488 5488 5488 5487 5488 5488 5488 5489 5488 5488 5488 5488 5489 5489 5490 5491 5492 5493 5494 5494 5494 5495 5495 5496 5497
5510 5508 5506 5504 5503 5502 5500 5499 5497 5496 5495 5494 5493 5491 5490 5489 5488 5486 5485 5484 5483 5483 5482 5482 5483 5482 5483 5483 5483 5484 5483 5483 5484 5483 5483 5483 5483 5483 5483 5483 5483 5483 5484 5485 5485 5486 5487 5488 5489 5489 5489 5490
5507 5505 5503 5501 5500 5499 5497 5496 5495 5492 5491 5489 5488 5487 5486 5484 5483 5482 5480 5479 5478 5477 5477 5477 5477 5477 5477 5478 5478 5478 5479 5478 5478 5478 5477 5477 5477 5477 5477 5476 5476 5477 5478 5478 5478 5479 5480 5481 5481 5482 5483 5484
5505 5502 5500 5498 5497 5495 5493 5492 5491 5488 5487 5485 5484 5482 5481 5480 5478 5476 5475 5474 5473 5472 5472 5471 5471 5471 5471 5471 5472 5473 5473 5473 5472 5473 5472 5472 5471 5470 5470 5470 5470 5470 5471 5471 5471 5472 5473 5473 5474 5475 5476 5476
5501 5499 5497 5495 5493 5492 5491 5489 5487 5485 5483 5481 5480 5478 5476 5474 5473 5471 5470 5469 5467 5467 5466 5466 5466 5465 5465 5465 5465 5465 5466 5466 5466 5466 5465 5465 5465 5464 5464 5463 5463 5463 5464 5464 5464 5465 5465 5466 5467 5467 5468 5468
5497 5496 5494 5492 5490 5489 5487 5485 5483 5481 5479 5477 5475 5473 5471 5470 5468 5466 5464 5463 5462 5461 5460 5459 5459 5459 5459 5459 5459 5458 5458 5458 5458 5458 5458 5457 5457 5457 5456 5456 5455 5455 5456 5456 5456 5457 5457 5458 5458 5459 5460 5460
5493 5492 5491 5489 5487 5485 5484 5482 5480 5477 5475 5473 5470 5468 5467 5465 5463 5461 5459 5458 5456 5455 5453 5452 5452 5452 5452 5451 5451 5451 5450 5450 5450 5450 5449 5449 5448 5448 5447 5447 5446 5446 5447 5447 5448 5448 5449 5450 5450 5451 5451 5452
5489 5488 5487 5485 5483 5481 5479 5478 5476 5473 5471 5468 5466 5463 5462 5460 5458 5456 5454 5452 5449 5447 5446 5444 5444 5444 5444 5444 5443 5443 5443 5442 5441 5441 5440 5439 5439 5438 5437 5437 5437 5437 5437 5438 5438 5439 5439 5440 5441 5442 5442 5443
5484 5483 5482 5480 5479 5477 5475 5472 5470 5468 5466 5463 5460 5458 5456 5454 5452 5450 5448 5446 5443 5441 5439 5437 5437 5436 5436 5435 5435 5434 5433 5433 5432 5431 5431 5430 5428 5428 5428 5427 5427 5427 5428 5428 5429 5429 5430 5430 5431 5432 5433 5435
5478 5477 5476 5474 5473 5471 5468 5466 5464 5462 5460 5457 5455 5453 5450 5448 5446 5444 5442 5439 5437 5435 5432 5430 5429 5428 5427 5426 5426 5425 5423 5422 5422 5421 5420 5420 5418 5418 5418 5417 5417 5417 5417 5418 5419 5420 5420 5420 5421 5422 5423 5426
5471 5470 5468 5467 5465 5463 5461 5459 5458 5456 5454 5451 5449 5447 5444 5442 5440 5438 5436 5433 5431 5428 5426 5424 5422 5420 5418 5417 5417 5416 5414 5412 5411 5410 5409 5409 5408 5407 5407 5406 5406 5406 5407 5408 5409 5410 5410 5410 5412 5413 5414 5417
5464 5463 5460 5459 5457 5455 5453 5451 5450 5448 5446 5445 5442 5440 5438 5436 5434 5431 5429 5426 5423 5421 5419 5416 5414 5412 5409 5408 5407 5406 5405 5403 5401 5400 5398 5398 5398 5397 5396 5396 5395 5395 5395 5397 5400 5401 5400 5401 5402 5404 5405 5407
5456 5455 5452 5451 5449 5447 5446 5444 5442 5440 5438 5437 5435 5433 5431 5429 5426 5424 5421 5419 5416 5413 5411 5408 5406 5404 5401 5398 5397 5396 5395 5394 5392 5390 5388 5387 5386 5386 5386 5386 5384 5383 5383 5386 5389 5390 5391 5393 5393 5395 5397 5399
5448 5446 5444 5443 5442 5441 5439 5437 5434 5432 5430 5428 5427 5426 5424 5422 5420 5417 5414 5411 5408 5406 5403 5401 5398 5395 5392 5390 5387 5386 5386 5384 5383 5380 5379 5377 5376 5376 5376 5376 5374 5370 5371 5373 5375 5378 5382 5384 5384 5386 5390 5391
5440 5438 5435 5434 5433 5432 5431 5429 5427 5424 5422 5421 5419 5418 5416 5414 5412 5410 5407 5404 5401 5398 5396 5393 5390 5387 5384 5381 5378 5377 5376 5374 5373 5371 5369 5367 5366 5366 5365 5366 5365 5358 5357 5360 5362 5364 5368 5374 5377 5379 5382 5383
5433 5430 5428 5426 5424 5423 5422 5420 5418 5416 5414 5412 5410 5408 5407 5405 5403 5401 5398 5396 5393 5391 5388 5385 5382 5379 5376 5373 5369 5368 5367 5365 5363 5360 5358 5356 5355 5354 5353 5355 5354 5348 5345 5347 5348 5348 5351 5360 5365 5368 5371 5373
5427 5425 5423 5420 5417 5415 5413 5411 5409 5407 5405 5402 5400 5398 5397 5395 5394 5392 5390 5388 5385 5381 5379 5376 5373 5370 5367 5364 5361 5358 5357 5355 5353 5350 5348 5345 5343 5342 5342 5342 5342 5338 5334 5334 5334 5334 5338 5343 5346 5352 5358 5358
5421 5419 5417 5414 5411 5408 5405 5403 5400 5398 5396 5394 5391 5390 5388 5386 5385 5383 5381 5379 5376 5374 5371 5368 5365 5362 5359 5355 5351 5348 5347 5345 5343 5341 5338 5335 5332 5331 5330 5330 5330 5328 5324 5322 5322 5323 5327 5330 5331 5338 5342 5342
5413 5411 5409 5406 5403 5400 5398 5395 5393 5391 5390 5388 5386 5384 5381 5379 5377 5375 5374 5372 5369 5367 5364 5361 5357 5353 5350 5347 5343 5340 5338 5336 5333 5330 5328 5325 5322 5321 5319 5315 5315 5317 5313 5309 5311 5313 5315 5318 5319 5323 5324 5324
5405 5403 5401 5398 5396 5393 5390 5388 5387 5386 5384 5383 5380 5378 5376 5373 5371 5368 5366 5364 5361 5359 5356 5353 5349 5345 5342 5339 5335 5331 5329 5327 5323 5320 5318 5313 5310 5310 5307 5302 5302 5305 5301 5295 5300 5302 5301 5303 5305 5306 5307 5309